GW1238 Weather Reports


time (UTC)temp
F
wind
direction
speed
knots
gust
knots
rain 1hr
in
rain 24hr
in
rain mn
in
humidity
%
barometer
mb
20260904193853 105 156 0.0 0.0 0.00 0.00 0.00 44 1017.8
20260904193348 103 168 0.0 0.0 0.00 0.00 0.00 47 1017.9
20260904192844 99 181 0.9 1.7 0.00 0.00 0.00 52 1018.0
20260904192339 97 152 0.0 0.9 0.00 0.00 0.00 53 1018.0
20260904191835 96 152 0.9 1.7 0.00 0.00 0.00 54 1018.4
20260904191332 95 140 1.7 2.6 0.00 0.00 0.00 52 1018.5
20260904190828 96 135 1.7 2.6 0.00 0.00 0.00 55 1018.5
20260904190324 100 172 0.9 0.9 0.00 0.00 0.00 51 1018.5
20260904185819 96 139 0.0 0.9 0.00 0.00 0.00 54 1018.7
20260904185315 94 127 0.9 0.9 0.00 0.00 0.00 59 1018.5
20260904184814 94 117 0.9 1.7 0.00 0.00 0.00 58 1018.9
20260904184309 93 117 1.7 2.6 0.00 0.00 0.00 58 1018.9
20260904183805 93 118 0.9 2.6 0.00 0.00 0.00 59 1019.1
20260904183306 93 102 1.7 3.5 0.00 0.00 0.00 60 1019.1
20260904182801 93 91 2.6 2.6 0.00 0.00 0.00 59 1019.1
20260904182256 93 110 3.5 3.5 0.00 0.00 0.00 61 1019.3
20260904181751 93 118 1.7 2.6 0.00 0.00 0.00 59 1019.2
20260904181251 93 97 1.7 2.6 0.00 0.00 0.00 59 1019.2
20260904180747 94 125 0.9 0.9 0.00 0.00 0.00 58 1019.2
20260904180242 94 126 0.0 1.7 0.00 0.00 0.00 59 1019.4
20260904175741 96 133 0.0 0.0 0.00 0.00 0.00 58 1019.3
20260904175239 93 130 0.0 0.9 0.00 0.00 0.00 63 1019.5
20260904174734 92 125 0.9 0.9 0.00 0.00 0.00 63 1019.3
20260904174230 92 115 0.9 1.7 0.00 0.00 0.00 63 1019.7
20260904173726 92 128 0.9 0.9 0.00 0.00 0.00 62 1019.9
20260904173226 92 129 0.9 0.9 0.00 0.00 0.00 64 1019.7
20260904172723 92 129 0.9 0.9 0.00 0.00 0.00 66 1019.7
20260904172221 91 128 0.9 1.7 0.00 0.00 0.00 64 1019.9
20260904171717 91 119 1.7 1.7 0.00 0.00 0.00 68 1019.9
20260904171212 90 116 1.7 1.7 0.00 0.00 0.00 65 1019.9
20260904170708 90 112 1.7 2.6 0.00 0.00 0.00 68 1020.3
20260904170204 90 113 1.7 2.6 0.00 0.00 0.00 69 1020.0
20260904165703 90 117 1.7 1.7 0.00 0.00 0.00 69 1020.3
20260904165202 90 122 1.7 2.6 0.00 0.00 0.00 71 1020.1
20260904164657 90 127 0.9 1.7 0.00 0.00 0.00 69 1020.3
20260904164152 91 124 1.7 1.7 0.00 0.00 0.00 71 1020.2
20260904163648 93 180 0.9 1.7 0.00 0.00 0.00 67 1020.4
20260904163143 92 189 1.7 1.7 0.00 0.00 0.00 69 1020.2
20260904162642 91 185 1.7 1.7 0.00 0.00 0.00 70 1020.4
20260904162137 90 174 1.7 2.6 0.00 0.00 0.00 72 1020.5
20260904161633 89 175 1.7 1.7 0.00 0.00 0.00 72 1020.7
20260904161127 88 162 1.7 1.7 0.00 0.00 0.00 72 1020.6
20260904160624 88 161 1.7 2.6 0.00 0.00 0.00 73 1020.6
20260904160119 88 150 0.9 1.7 0.00 0.00 0.00 72 1020.5
20260904155614 88 150 1.7 1.7 0.00 0.00 0.00 75 1020.6
20260904155108 87 137 1.7 2.6 0.00 0.00 0.00 74 1020.6
20260904154601 88 140 1.7 2.6 0.00 0.00 0.00 74 1020.6
20260904154056 88 153 1.7 2.6 0.00 0.00 0.00 72 1020.6
20260904153555 88 161 1.7 1.7 0.00 0.00 0.00 71 1020.7
20260904153052 89 156 1.7 1.7 0.00 0.00 0.00 72 1020.6
20260904152548 91 164 0.9 1.7 0.00 0.00 0.00 69 1020.8
20260904152043 91 183 0.9 1.7 0.00 0.00 0.00 67 1020.7
20260904151538 91 190 0.9 0.9 0.00 0.00 0.00 68 1020.7
20260904151037 90 201 0.9 0.9 0.00 0.00 0.00 68 1020.8
20260904150532 90 185 1.7 1.7 0.00 0.00 0.00 68 1020.6
20260904150027 91 187 0.9 1.7 0.00 0.00 0.00 69 1020.8
20260904145526 91 190 0.9 1.7 0.00 0.00 0.00 68 1020.7
20260904145022 91 180 0.9 0.9 0.00 0.00 0.00 69 1020.9
20260904144518 89 171 0.9 0.9 0.00 0.00 0.00 71 1020.7
20260904144014 88 142 0.0 0.0 0.00 0.00 0.00 72 1020.6
20260904143509 87 128 0.9 1.7 0.00 0.00 0.00 72 1020.8
20260904143006 87 104 0.0 0.9 0.00 0.00 0.00 72 1020.8
20260904142502 90 157 0.0 0.0 0.00 0.00 0.00 70 1020.7
20260904142001 89 161 0.0 0.9 0.00 0.00 0.00 73 1020.6
20260904141456 89 109 0.9 0.9 0.00 0.00 0.00 70 1020.6
20260904140953 88 142 0.0 0.0 0.00 0.00 0.00 72 1020.6
20260904140452 87 119 0.0 0.9 0.00 0.00 0.00 76 1020.5
20260904135951 87 141 0.9 0.9 0.00 0.00 0.00 74 1020.3
20260904135446 87 147 0.9 0.9 0.00 0.00 0.00 76 1020.4
20260904134942 86 154 0.9 0.9 0.00 0.00 0.00 79 1020.3
20260904134442 85 149 1.7 1.7 0.00 0.00 0.00 79 1020.5
20260904133937 86 154 0.9 1.7 0.00 0.00 0.00 77 1020.4
20260904133431 88 164 0.9 1.7 0.00 0.00 0.00 76 1020.3
20260904132927 88 168 0.9 0.9 0.00 0.00 0.00 76 1020.3
20260904132422 87 170 0.0 0.9 0.00 0.00 0.00 78 1020.2
20260904131921 88 212 1.7 1.7 0.00 0.00 0.00 77 1020.4
20260904131417 88 175 0.9 0.9 0.00 0.00 0.00 80 1020.5
20260904130913 87 161 0.0 0.0 0.00 0.00 0.00 82 1020.3
20260904130412 85 135 0.0 0.9 0.00 0.00 0.00 82 1020.4
20260904125907 85 145 0.0 0.0 0.00 0.00 0.00 84 1020.5
20260904125404 84 133 0.0 1.7 0.00 0.00 0.00 87 1020.4
20260904124902 83 129 0.0 0.9 0.00 0.00 0.00 86 1020.5
20260904124359 83 128 0.0 0.0 0.00 0.00 0.00 89 1020.4
20260904123854 82 147 0.0 0.0 0.00 0.00 0.00 94 1020.5
20260904123349 79 134 0.0 0.0 0.00 0.00 0.00 95 1020.5
20260904122845 78 342 0.9 0.9 0.00 0.00 0.00 95 1020.5
20260904122344 78 51 0.0 0.0 0.00 0.00 0.00 96 1020.5
20260904121839 77 353 0.9 1.7 0.00 0.00 0.00 96 1020.4
20260904121335 77 335 0.9 1.7 0.00 0.00 0.00 96 1020.4
20260904120832 76 341 0.9 1.7 0.00 0.00 0.00 96 1020.2
20260904120327 76 343 0.9 1.7 0.00 0.00 0.00 97 1020.3
20260904115822 76 341 0.9 1.7 0.00 0.00 0.00 97 1020.3
20260904115317 75 340 1.7 1.7 0.00 0.00 0.00 97 1020.2
20260904114817 75 343 1.7 1.7 0.00 0.00 0.00 97 1020.3
20260904114312 75 338 0.9 1.7 0.00 0.00 0.00 98 1020.0
20260904113807 75 337 0.9 1.7 0.00 0.00 0.00 97 1020.0
20260904113306 75 330 0.9 1.7 0.00 0.00 0.00 98 1020.1
20260904112801 75 345 0.9 1.7 0.00 0.00 0.00 98 1020.0
20260904112256 75 340 0.9 1.7 0.00 0.00 0.00 98 1020.1
20260904111752 75 342 0.9 1.7 0.00 0.00 0.00 98 1020.1
20260904111248 75 336 1.7 1.7 0.00 0.00 0.00 98 1020.1
20260904110743 75 355 1.7 2.6 0.00 0.00 0.00 98 1019.8
20260904110242 75 334 1.7 1.7 0.00 0.00 0.00 98 1020.0
20260904105737 75 357 0.9 1.7 0.00 0.00 0.00 98 1019.7
20260904105232 75 356 1.7 1.7 0.00 0.00 0.00 98 1019.8
20260904104728 75 1 1.7 1.7 0.00 0.00 0.00 97 1019.7
20260904104223 75 337 1.7 1.7 0.00 0.00 0.00 97 1019.4
20260904103720 75 334 1.7 1.7 0.00 0.00 0.00 97 1019.5
20260904103214 75 339 1.7 2.6 0.00 0.00 0.00 97 1019.5
20260904102710 75 336 1.7 1.7 0.00 0.00 0.00 97 1019.4
20260904102205 75 336 1.7 1.7 0.00 0.00 0.00 97 1019.3
20260904101702 75 327 0.9 1.7 0.00 0.00 0.00 97 1019.4
20260904101157 75 0 0.9 1.7 0.00 0.00 0.00 97 1019.5
20260904100653 75 341 1.7 1.7 0.00 0.00 0.00 97 1019.2
20260904100148 75 333 1.7 1.7 0.00 0.00 0.00 96 1019.2
20260904095642 75 355 0.9 1.7 0.00 0.00 0.00 96 1019.2
20260904095138 75 352 0.9 1.7 0.00 0.00 0.00 96 1019.2
20260904094632 75 340 1.7 1.7 0.00 0.00 0.00 96 1019.5
20260904094127 75 337 1.7 1.7 0.00 0.00 0.00 95 1019.4
20260904093624 75 337 0.9 2.6 0.00 0.00 0.00 95 1019.0
20260904093124 76 333 1.7 1.7 0.00 0.00 0.00 95 1019.2
20260904092620 76 338 0.9 1.7 0.00 0.00 0.00 95 1019.1
20260904092116 75 324 1.7 1.7 0.00 0.00 0.00 95 1019.2
20260904091612 76 334 1.7 1.7 0.00 0.00 0.00 95 1019.1
20260904091111 76 341 1.7 1.7 0.00 0.00 0.00 95 1019.1
20260904090607 76 344 1.7 1.7 0.00 0.00 0.00 95 1019.1
20260904085557 76 346 0.9 1.7 0.00 0.00 0.00 95 1019.0
20260904085057 76 322 1.7 1.7 0.00 0.00 0.00 95 1018.9
20260904084552 75 341 1.7 1.7 0.00 0.00 0.00 95 1019.0
20260904084049 76 338 1.7 1.7 0.00 0.00 0.00 95 1019.0
20260904083544 76 337 1.7 1.7 0.00 0.00 0.00 95 1019.1
20260904083040 76 344 0.9 1.7 0.00 0.00 0.00 95 1018.8
20260904082535 76 336 1.7 1.7 0.00 0.00 0.00 95 1019.1
20260904082030 76 320 0.9 1.7 0.00 0.00 0.00 95 1018.9
20260904081525 76 349 0.9 1.7 0.00 0.00 0.00 95 1019.1
20260904081021 76 324 1.7 1.7 0.00 0.00 0.00 95 1019.0
20260904080517 76 339 0.9 2.6 0.00 0.00 0.00 95 1018.8
20260904080013 76 340 1.7 1.7 0.00 0.00 0.00 95 1019.0
20260904075509 76 336 1.7 1.7 0.00 0.00 0.00 95 1018.8
20260904075009 76 346 1.7 1.7 0.00 0.00 0.00 95 1018.7
20260904074502 77 322 1.7 1.7 0.00 0.00 0.00 95 1018.8
20260904073957 77 334 0.9 1.7 0.00 0.00 0.00 95 1018.9
20260904073453 77 339 0.9 1.7 0.00 0.00 0.00 95 1018.9
20260904072948 77 340 1.7 1.7 0.00 0.00 0.00 95 1018.5
20260904072444 76 342 0.9 1.7 0.00 0.00 0.00 95 1018.8
20260904071938 77 350 0.9 1.7 0.00 0.00 0.00 95 1018.7
20260904071434 77 329 1.7 1.7 0.00 0.00 0.00 95 1018.8
20260904070929 77 351 0.9 1.7 0.00 0.00 0.00 95 1018.7
20260904070428 77 352 0.9 1.7 0.00 0.00 0.00 95 1018.9
20260904065923 78 4 0.9 1.7 0.00 0.00 0.00 95 1018.8
20260904065419 77 337 1.7 1.7 0.00 0.00 0.00 94 1018.9
20260904064918 77 340 1.7 1.7 0.00 0.00 0.00 95 1018.9
20260904064414 77 330 1.7 1.7 0.00 0.00 0.00 94 1019.1
20260904063909 78 328 0.9 1.7 0.00 0.00 0.00 95 1018.9
20260904063406 77 322 1.7 1.7 0.00 0.00 0.00 94 1018.9
20260904062900 77 348 1.7 2.6 0.00 0.00 0.00 94 1018.8
20260904062356 77 318 1.7 1.7 0.00 0.00 0.00 94 1018.9
20260904061852 77 322 0.9 1.7 0.00 0.00 0.00 94 1019.0
20260904061349 78 333 0.9 1.7 0.00 0.00 0.00 93 1019.0
20260904060844 78 338 0.9 1.7 0.00 0.00 0.00 93 1018.9
20260904060340 78 336 0.9 1.7 0.00 0.00 0.00 93 1019.0
20260904055835 78 340 1.7 2.6 0.00 0.00 0.00 93 1019.0
20260904055330 77 341 1.7 1.7 0.00 0.00 0.00 92 1018.9
20260904054826 78 335 1.7 1.7 0.00 0.00 0.00 92 1018.9
20260904054322 78 329 1.7 2.6 0.00 0.00 0.00 92 1019.1
20260904053817 78 335 1.7 1.7 0.00 0.00 0.00 92 1019.0
20260904053317 78 337 1.7 2.6 0.00 0.00 0.00 91 1019.0
20260904052813 78 337 1.7 1.7 0.00 0.00 0.00 91 1019.3
20260904052309 78 358 1.7 1.7 0.00 0.00 0.00 91 1019.2
20260904051806 78 348 1.7 1.7 0.00 0.00 0.00 91 1019.3
20260904051301 78 343 1.7 1.7 0.00 0.00 0.00 91 1019.2
20260904050755 78 342 0.9 1.7 0.00 0.00 0.00 91 1019.2
20260904050252 78 335 1.7 1.7 0.00 0.00 0.00 91 1019.2
20260904045747 78 332 1.7 1.7 0.00 0.00 0.00 90 1019.3
20260904045241 78 335 0.9 1.7 0.00 0.00 0.00 90 1019.1
20260904044736 78 340 1.7 2.6 0.00 0.00 0.00 90 1019.3
20260904044233 79 335 1.7 1.7 0.00 0.00 0.00 90 1019.1
20260904043728 78 345 1.7 1.7 0.00 0.00 0.00 90 1019.5
20260904043225 78 337 1.7 1.7 0.00 0.00 0.00 90 1019.3
20260904042720 79 330 1.7 1.7 0.00 0.00 0.00 89 1019.4
20260904042216 79 344 0.9 1.7 0.00 0.00 0.00 90 1019.5
20260904041716 79 327 0.9 1.7 0.00 0.00 0.00 90 1019.5
20260904041212 79 344 0.9 1.7 0.00 0.00 0.00 90 1019.2
20260904040708 79 348 0.9 1.7 0.00 0.00 0.00 89 1019.5
20260904040203 79 337 1.7 1.7 0.00 0.00 0.00 88 1019.4
20260904035659 79 338 0.9 1.7 0.00 0.00 0.00 88 1019.4
20260904035154 79 349 1.7 2.6 0.00 0.00 0.00 89 1019.6
20260904034652 79 335 0.9 1.7 0.00 0.00 0.00 88 1019.6
20260904034149 79 335 1.7 1.7 0.00 0.00 0.00 88 1019.7
20260904033645 79 327 0.9 1.7 0.00 0.00 0.00 88 1019.7
20260904033141 79 346 0.9 1.7 0.00 0.00 0.00 88 1019.7
20260904032637 79 335 1.7 1.7 0.00 0.00 0.00 87 1019.5
20260904032136 79 338 1.7 1.7 0.00 0.00 0.00 87 1019.8
20260904031635 79 343 0.9 1.7 0.00 0.00 0.00 88 1019.8
20260904031131 80 333 1.7 1.7 0.00 0.00 0.00 88 1019.9
20260904030627 80 331 1.7 1.7 0.00 0.00 0.00 88 1019.7
20260904030128 80 337 1.7 1.7 0.00 0.00 0.00 87 1019.8
20260904025624 80 335 1.7 1.7 0.00 0.00 0.00 87 1020.0
20260904025119 80 336 0.9 1.7 0.00 0.00 0.00 87 1019.7
20260904024615 80 341 1.7 1.7 0.00 0.00 0.00 87 1019.8
20260904024110 80 344 0.9 1.7 0.00 0.00 0.00 88 1019.9
20260904023606 80 335 1.7 1.7 0.00 0.00 0.00 86 1020.0
20260904023102 80 339 0.9 1.7 0.00 0.00 0.00 86 1019.7
20260904022601 80 352 0.9 1.7 0.00 0.00 0.00 86 1019.6
20260904022059 80 344 1.7 1.7 0.00 0.00 0.00 86 1019.6
20260904021554 80 340 0.9 1.7 0.00 0.00 0.00 86 1019.7
20260904021048 80 333 1.7 1.7 0.00 0.00 0.00 86 1019.6
20260904020544 80 339 1.7 1.7 0.00 0.00 0.00 86 1019.4
20260904020038 81 349 0.9 1.7 0.00 0.00 0.00 86 1019.3
20260904015533 81 353 0.9 1.7 0.00 0.00 0.00 86 1019.3
20260904015033 81 340 0.9 1.7 0.00 0.00 0.00 85 1019.1
20260904014532 81 338 1.7 1.7 0.00 0.00 0.00 84 1019.3
20260904014027 81 324 1.7 1.7 0.00 0.00 0.00 84 1019.0
20260904013524 81 344 1.7 1.7 0.00 0.00 0.00 85 1019.2
20260904013020 81 339 1.7 1.7 0.00 0.00 0.00 84 1019.1
20260904012514 81 326 1.7 1.7 0.00 0.00 0.00 84 1019.0
20260904012008 81 339 1.7 1.7 0.00 0.00 0.00 83 1018.8
20260904011502 82 331 1.7 1.7 0.00 0.00 0.00 84 1019.0
20260904010958 82 341 1.7 1.7 0.00 0.00 0.00 83 1018.9
20260904010454 82 325 1.7 1.7 0.00 0.00 0.00 82 1018.7
20260904005949 82 356 0.9 1.7 0.00 0.00 0.00 83 1018.8
20260904005445 82 346 0.9 1.7 0.00 0.00 0.00 83 1018.5
20260904004945 82 336 1.7 1.7 0.00 0.00 0.00 83 1018.4
20260904004441 83 341 0.9 1.7 0.00 0.00 0.00 82 1018.7
20260904003941 83 323 0.9 0.9 0.00 0.00 0.00 82 1018.4
20260904003437 83 354 0.9 1.7 0.00 0.00 0.00 82 1018.5
20260904002932 83 339 1.7 1.7 0.00 0.00 0.00 82 1018.2
20260904002429 83 346 1.7 2.6 0.00 0.00 0.00 82 1018.1
20260904001927 83 338 0.9 1.7 0.00 0.00 0.00 83 1018.3
20260904001423 83 339 1.7 1.7 0.00 0.00 0.00 82 1018.1
20260904000918 84 321 0.9 1.7 0.00 0.00 0.00 81 1018.1
20260904000418 84 346 0.9 0.9 0.00 0.00 0.00 82 1017.9
20260903235912 84 339 0.9 1.7 0.00 0.00 0.00 82 1017.8
20260903235409 84 345 1.7 1.7 0.00 0.00 0.00 83 1017.7
20260903234908 84 336 1.7 1.7 0.00 0.00 0.00 82 1017.8
20260903234404 84 330 1.7 2.6 0.00 0.00 0.00 82 1017.9
20260903233900 85 335 0.9 1.7 0.00 0.00 0.00 81 1017.8
20260903233355 85 327 0.9 1.7 0.00 0.00 0.00 82 1017.7
20260903232854 85 342 0.9 1.7 0.00 0.00 0.00 81 1017.5
20260903232351 85 340 0.9 1.7 0.00 0.00 0.00 81 1017.6
20260903231849 85 338 1.7 1.7 0.00 0.00 0.00 81 1017.6
20260903231345 85 334 1.7 1.7 0.00 0.00 0.00 80 1017.8
20260903230840 86 330 0.9 1.7 0.00 0.00 0.00 80 1017.7
20260903230336 86 345 0.9 1.7 0.00 0.00 0.00 80 1017.7
20260903225832 86 339 0.9 1.7 0.00 0.00 0.00 81 1017.6
20260903225327 86 341 1.7 1.7 0.00 0.00 0.00 80 1017.6
20260903224824 86 338 1.7 1.7 0.00 0.00 0.00 80 1017.7
20260903224319 87 335 1.7 1.7 0.00 0.00 0.00 79 1017.5
20260903223815 87 336 1.7 1.7 0.00 0.00 0.00 79 1017.7
20260903223314 87 344 1.7 1.7 0.00 0.00 0.00 79 1017.8
20260903222809 87 339 1.7 1.7 0.00 0.00 0.00 78 1017.8
20260903222308 88 341 1.7 1.7 0.00 0.00 0.00 77 1017.8
20260903221803 88 341 1.7 1.7 0.00 0.00 0.00 75 1017.6
20260903221302 88 336 0.9 1.7 0.00 0.00 0.00 73 1017.6
20260903220800 88 343 0.9 1.7 0.00 0.00 0.00 74 1017.5
20260903220255 89 340 0.9 1.7 0.00 0.00 0.00 73 1017.7
20260903215753 89 335 1.7 2.6 0.00 0.00 0.00 73 1017.7
20260903215249 89 333 0.9 1.7 0.00 0.00 0.00 73 1017.6
20260903214747 89 327 0.9 1.7 0.00 0.00 0.00 70 1017.6
20260903214244 89 333 1.7 1.7 0.00 0.00 0.00 69 1017.7
20260903213737 89 338 1.7 1.7 0.00 0.00 0.00 68 1017.8
20260903213234 91 327 1.7 1.7 0.00 0.00 0.00 68 1017.7
20260903212730 92 342 0.9 1.7 0.00 0.00 0.00 66 1017.8
20260903212226 92 128 0.0 0.9 0.00 0.00 0.00 71 1017.7
20260903211725 93 136 0.9 1.7 0.00 0.00 0.00 69 1017.8
20260903211221 93 139 0.9 1.7 0.00 0.00 0.00 63 1017.9
20260903210718 93 132 1.7 2.6 0.00 0.00 0.00 65 1017.8
20260903210213 94 147 2.6 2.6 0.00 0.00 0.00 60 1018.0
20260903205712 94 166 1.7 2.6 0.00 0.00 0.00 58 1018.0
20260903205211 94 140 1.7 2.6 0.00 0.00 0.00 59 1018.0
20260903204707 94 160 3.5 3.5 0.00 0.00 0.00 61 1018.1
20260903204203 95 134 0.9 1.7 0.00 0.00 0.00 54 1018.1
20260903203658 96 142 0.9 1.7 0.00 0.00 0.00 56 1017.9
20260903203154 99 178 0.9 1.7 0.00 0.00 0.00 50 1018.1
20260903202648 99 184 0.0 0.9 0.00 0.00 0.00 54 1018.1
20260903202144 98 147 0.0 0.0 0.00 0.00 0.00 54 1018.1
20260903201638 96 127 0.9 0.9 0.00 0.00 0.00 57 1018.1
20260903201137 96 137 0.0 0.0 0.00 0.00 0.00 56 1018.2
20260903200632 94 97 0.9 0.9 0.00 0.00 0.00 57 1018.3
20260903200128 94 115 0.0 2.6 0.00 0.00 0.00 57 1018.4
20260903195624 94 95 1.7 2.6 0.00 0.00 0.00 59 1018.4
20260903195119 94 89 2.6 2.6 0.00 0.00 0.00 60 1018.7
20260903194614 94 99 2.6 2.6 0.00 0.00 0.00 56 1018.9